NKS9985 TJSJ-KFLL

Flight info

Callsign NKS9985
Flight time N/A
Altitude 38000
Route DCT SAPPO Y399 ZQA OLAHS3
Aircraft A321/M-SDE3FGHIRWXYZ/LB1

Departure

Time 2026-05-06 09:35
Airport Luis Munoz Marin International Airport (TJSJ)

Arrival

Time N/A
Airport Fort Lauderdale Hollywood International Airport (KFLL)
Time Latitude Longitude Altitude Speed Heading
2026-05-06 09:27 18.43561 -65.99486 -23 ft 0 kts 29°
2026-05-06 09:29 18.43562 -65.99485 -23 ft 1 kts 29°
2026-05-06 09:29 18.43578 -65.99476 -28 ft 7 kts 29°
2026-05-06 09:30 18.43630 -65.99501 -24 ft 11 kts 282°
2026-05-06 09:30 18.43597 -65.99539 -23 ft 1 kts 204°
2026-05-06 09:30 18.43580 -65.99547 -24 ft 5 kts 204°
2026-05-06 09:30 18.43538 -65.99548 -23 ft 8 kts 178°
2026-05-06 09:31 18.43471 -65.99564 -32 ft 14 kts 227°
2026-05-06 09:31 18.43464 -65.99693 -29 ft 20 kts 271°
2026-05-06 09:31 18.43465 -65.99851 -29 ft 23 kts 270°
2026-05-06 09:31 18.43463 -66.00024 -29 ft 25 kts 270°
2026-05-06 09:32 18.43467 -66.00220 -32 ft 28 kts 271°
2026-05-06 09:32 18.43466 -66.00390 -30 ft 21 kts 269°
2026-05-06 09:32 18.43465 -66.00546 -28 ft 22 kts 271°
2026-05-06 09:32 18.43468 -66.00745 -28 ft 30 kts 270°
2026-05-06 09:33 18.43466 -66.00960 -29 ft 28 kts 269°
2026-05-06 09:33 18.43466 -66.01173 -31 ft 30 kts 270°
2026-05-06 09:33 18.43466 -66.01314 -30 ft 19 kts 269°
2026-05-06 09:33 18.43489 -66.01426 -46 ft 15 kts 331°
2026-05-06 09:34 18.43604 -66.01436 -34 ft 17 kts 359°
2026-05-06 09:34 18.43738 -66.01435 -49 ft 24 kts
2026-05-06 09:34 18.43849 -66.01464 -39 ft 14 kts 333°
2026-05-06 09:34 18.43892 -66.01458 -41 ft 7 kts 58°
2026-05-06 09:35 18.43915 -66.01392 -47 ft 14 kts 67°
2026-05-06 09:35 18.44068 -66.01012 -52 ft 112 kts 67°
2026-05-06 09:35 18.44486 -65.99989 318 ft 172 kts 66°
2026-05-06 09:35 18.45097 -65.98900 1562 ft 171 kts 46°
2026-05-06 09:36 18.46180 -65.98495 2441 ft 176 kts 357°
2026-05-06 09:36 18.47412 -65.98896 2903 ft 199 kts 339°
2026-05-06 09:36 18.48756 -65.99537 3321 ft 224 kts 336°
2026-05-06 09:36 18.50245 -66.00278 3765 ft 250 kts 336°
2026-05-06 09:37 18.51884 -66.01138 4329 ft 275 kts 328°
2026-05-06 09:37 18.53329 -66.02536 5139 ft 287 kts 314°
2026-05-06 09:37 18.54698 -66.04094 6113 ft 291 kts 313°
2026-05-06 09:37 18.56068 -66.05669 7121 ft 293 kts 313°
2026-05-06 09:38 18.57449 -66.07260 8079 ft 294 kts 312°
2026-05-06 09:38 18.58838 -66.08859 9008 ft 297 kts 312°
2026-05-06 09:38 18.60242 -66.10470 9951 ft 300 kts 311°
2026-05-06 09:38 18.61677 -66.12118 10409 ft 320 kts 312°
2026-05-06 09:39 18.63237 -66.13908 10769 ft 341 kts 311°
2026-05-06 09:39 18.64865 -66.15773 11443 ft 348 kts 311°
2026-05-06 09:39 18.66516 -66.17661 12263 ft 351 kts 312°
2026-05-06 09:39 18.68179 -66.19562 13096 ft 354 kts 312°
2026-05-06 09:40 18.69852 -66.21475 13890 ft 357 kts 312°
2026-05-06 09:40 18.71538 -66.23406 14596 ft 359 kts 311°
2026-05-06 09:40 18.74938 -66.27300 16153 ft 362 kts 311°
2026-05-06 09:41 18.76652 -66.29261 16938 ft 364 kts 311°
2026-05-06 09:41 18.78371 -66.31234 17710 ft 367 kts 311°
2026-05-06 09:41 18.80106 -66.33227 18420 ft 371 kts 311°
2026-05-06 09:41 18.81855 -66.35238 19080 ft 373 kts 311°
2026-05-06 09:42 18.83627 -66.37270 19740 ft 376 kts 311°
2026-05-06 09:42 18.85404 -66.39310 20411 ft 379 kts 312°
2026-05-06 09:42 18.87197 -66.41371 21081 ft 382 kts 312°
2026-05-06 09:42 18.88995 -66.43442 21751 ft 384 kts 312°
2026-05-06 09:43 18.90781 -66.45502 22421 ft 386 kts 312°
2026-05-06 09:43 18.92603 -66.47597 23091 ft 389 kts 313°
2026-05-06 09:43 18.94490 -66.49662 23708 ft 392 kts 315°
2026-05-06 09:43 18.96451 -66.51681 24201 ft 395 kts 316°
2026-05-06 09:44 18.98458 -66.53678 24688 ft 398 kts 316°
2026-05-06 09:44 19.00496 -66.55680 25166 ft 401 kts 316°
2026-05-06 09:44 19.02545 -66.57699 25637 ft 405 kts 316°
2026-05-06 09:44 19.04608 -66.59756 26114 ft 408 kts 316°
2026-05-06 09:45 19.06668 -66.61833 26584 ft 411 kts 315°
2026-05-06 09:45 19.08631 -66.64044 27025 ft 414 kts 309°
2026-05-06 09:45 19.10453 -66.66411 27484 ft 417 kts 308°
2026-05-06 09:45 19.12294 -66.68798 27939 ft 420 kts 309°
2026-05-06 09:46 19.14156 -66.71196 28400 ft 423 kts 309°
2026-05-06 09:46 19.16034 -66.73606 28852 ft 426 kts 309°
2026-05-06 09:46 19.17932 -66.76036 29299 ft 430 kts 309°
2026-05-06 09:46 19.19842 -66.78485 29736 ft 433 kts 308°
2026-05-06 09:47 19.21765 -66.80953 30170 ft 436 kts 308°
2026-05-06 09:47 19.23699 -66.83435 30521 ft 439 kts 308°
2026-05-06 09:47 19.25645 -66.85935 30907 ft 441 kts 308°
2026-05-06 09:47 19.27596 -66.88447 31322 ft 443 kts 308°
2026-05-06 09:48 19.29549 -66.90968 31915 ft 440 kts 308°
2026-05-06 09:48 19.31456 -66.93431 32541 ft 436 kts 308°
2026-05-06 09:48 19.33373 -66.95906 33143 ft 434 kts 308°
2026-05-06 09:48 19.35280 -66.98370 33714 ft 432 kts 307°
2026-05-06 09:49 19.37185 -67.00834 34272 ft 430 kts 307°
2026-05-06 09:49 19.39079 -67.03283 34752 ft 429 kts 307°
2026-05-06 09:49 19.40968 -67.05722 35234 ft 427 kts 307°
2026-05-06 09:49 19.42855 -67.08152 35696 ft 426 kts 307°
2026-05-06 09:50 19.44736 -67.10576 36170 ft 425 kts 307°
2026-05-06 09:50 19.46610 -67.12995 36623 ft 424 kts 307°
2026-05-06 09:50 19.48479 -67.15413 37061 ft 423 kts 307°
2026-05-06 09:50 19.50340 -67.17823 37491 ft 422 kts 307°
2026-05-06 09:51 19.52195 -67.20227 37903 ft 421 kts 307°
2026-05-06 09:51 19.54050 -67.22635 38056 ft 420 kts 307°
2026-05-06 09:51 19.57694 -67.27356 38078 ft 410 kts 307°
2026-05-06 09:52 19.61273 -67.31992 38084 ft 409 kts 307°
2026-05-06 09:52 19.64869 -67.36659 38091 ft 409 kts 307°
2026-05-06 09:53 19.68462 -67.41327 38083 ft 408 kts 307°
2026-05-06 09:53 19.72047 -67.45994 38089 ft 408 kts 307°
2026-05-06 09:54 19.75639 -67.50665 38084 ft 409 kts 308°
2026-05-06 09:54 19.79236 -67.55342 38095 ft 408 kts 308°
2026-05-06 09:55 19.82822 -67.60022 38101 ft 408 kts 308°
2026-05-06 09:55 19.86412 -67.64696 38099 ft 408 kts 308°
2026-05-06 09:56 19.89987 -67.69371 38096 ft 408 kts 308°
2026-05-06 09:56 19.93569 -67.74050 38107 ft 408 kts 308°
2026-05-06 09:57 19.97139 -67.78706 38101 ft 408 kts 308°
2026-05-06 09:57 20.00724 -67.83389 38107 ft 408 kts 308°
2026-05-06 09:58 20.04303 -67.88078 38105 ft 408 kts 308°
2026-05-06 09:58 20.07884 -67.92767 38099 ft 408 kts 308°
2026-05-06 09:59 20.11461 -67.97458 38112 ft 408 kts 308°
2026-05-06 09:59 20.15043 -68.02158 38105 ft 408 kts 308°
2026-05-06 10:00 20.18620 -68.06864 38107 ft 408 kts 307°
2026-05-06 10:00 20.22168 -68.11531 38100 ft 408 kts 308°
2026-05-06 10:01 20.25759 -68.16253 38104 ft 408 kts 307°
2026-05-06 10:01 20.29302 -68.20924 38093 ft 408 kts 308°
2026-05-06 10:02 20.32866 -68.25614 38104 ft 407 kts 308°
2026-05-06 10:02 20.36433 -68.30311 38110 ft 407 kts 308°
2026-05-06 10:03 20.39988 -68.35004 38116 ft 407 kts 308°
2026-05-06 10:03 20.42989 -68.38986 38086 ft 420 kts 307°
2026-05-06 10:04 20.46133 -68.44274 38084 ft 424 kts 300°
2026-05-06 10:04 20.49130 -68.49703 38084 ft 425 kts 300°
2026-05-06 10:05 20.52124 -68.55137 38086 ft 424 kts 300°
2026-05-06 10:05 20.55108 -68.60563 38086 ft 424 kts 300°
2026-05-06 10:06 20.58093 -68.65993 38091 ft 424 kts 300°
2026-05-06 10:06 20.61086 -68.71430 38097 ft 425 kts 300°
2026-05-06 10:07 20.64076 -68.76865 38097 ft 425 kts 300°
2026-05-06 10:07 20.67067 -68.82310 38097 ft 425 kts 300°
2026-05-06 10:08 20.70058 -68.87765 38102 ft 425 kts 301°
2026-05-06 10:08 20.73022 -68.93172 38110 ft 424 kts 300°
2026-05-06 10:09 20.75997 -68.98621 38111 ft 424 kts 300°
2026-05-06 10:09 20.78963 -69.04062 38110 ft 424 kts 300°
2026-05-06 10:10 20.81936 -69.09504 38117 ft 424 kts 300°
2026-05-06 10:10 20.84903 -69.14937 38114 ft 423 kts 300°
2026-05-06 10:11 20.87869 -69.20379 38115 ft 423 kts 301°
2026-05-06 10:11 20.90825 -69.25810 38118 ft 422 kts 301°
2026-05-06 10:12 20.93771 -69.31231 38108 ft 421 kts 301°
2026-05-06 10:12 20.96718 -69.36644 38113 ft 420 kts 301°
2026-05-06 10:13 20.99656 -69.42049 38110 ft 420 kts 301°
2026-05-06 10:13 21.02569 -69.47431 38109 ft 420 kts 301°
2026-05-06 10:14 21.05493 -69.52844 38105 ft 420 kts 301°
2026-05-06 10:14 21.08419 -69.58244 38111 ft 419 kts 301°
2026-05-06 10:15 21.11342 -69.63640 38111 ft 418 kts 301°
2026-05-06 10:15 21.14249 -69.69026 38113 ft 418 kts 301°
2026-05-06 10:16 21.17155 -69.74420 38111 ft 418 kts 301°
2026-05-06 10:16 21.20064 -69.79809 38105 ft 417 kts 301°
2026-05-06 10:17 21.22968 -69.85205 38119 ft 417 kts 301°
2026-05-06 10:17 21.25851 -69.90561 38113 ft 416 kts 301°
2026-05-06 10:18 21.28747 -69.95936 38111 ft 415 kts 301°
2026-05-06 10:18 21.31626 -70.01304 38109 ft 415 kts 301°
2026-05-06 10:19 21.34499 -70.06670 38110 ft 414 kts 301°
2026-05-06 10:19 21.37368 -70.12024 38109 ft 414 kts 301°
2026-05-06 10:20 21.40240 -70.17380 38106 ft 414 kts 301°
2026-05-06 10:20 21.43112 -70.22743 38103 ft 413 kts 302°
2026-05-06 10:21 21.45973 -70.28092 38109 ft 413 kts 302°
2026-05-06 10:21 21.48809 -70.33406 38109 ft 412 kts 302°
2026-05-06 10:22 21.51655 -70.38747 38105 ft 412 kts 302°
2026-05-06 10:22 21.54503 -70.44092 38107 ft 412 kts 302°
2026-05-06 10:23 21.57345 -70.49430 38107 ft 412 kts 302°
2026-05-06 10:23 21.60186 -70.54767 38100 ft 411 kts 302°
2026-05-06 10:24 21.63022 -70.60105 38115 ft 411 kts 302°
2026-05-06 10:24 21.65847 -70.65432 38108 ft 410 kts 302°
2026-05-06 10:25 21.68667 -70.70754 38106 ft 409 kts 302°
2026-05-06 10:25 21.71483 -70.76071 38104 ft 409 kts 302°
2026-05-06 10:26 21.74300 -70.81397 38105 ft 409 kts 302°
2026-05-06 10:26 21.77118 -70.86711 38105 ft 409 kts 302°
2026-05-06 10:27 21.79930 -70.92029 38100 ft 408 kts 303°
2026-05-06 10:27 21.82729 -70.97346 38104 ft 407 kts 303°
2026-05-06 10:28 21.85501 -71.02610 38100 ft 407 kts 303°
2026-05-06 10:28 21.88288 -71.07908 38100 ft 406 kts 303°
2026-05-06 10:29 21.91076 -71.13206 38102 ft 406 kts 303°
2026-05-06 10:29 21.93862 -71.18504 38099 ft 406 kts 303°
2026-05-06 10:30 21.96644 -71.23803 38102 ft 406 kts 302°
2026-05-06 10:30 21.99422 -71.29100 38102 ft 406 kts 302°
2026-05-06 10:31 22.02197 -71.34399 38113 ft 406 kts 302°
2026-05-06 10:31 22.04975 -71.39711 38105 ft 406 kts 302°
2026-05-06 10:32 22.07745 -71.45014 38100 ft 406 kts 302°
2026-05-06 10:32 22.10500 -71.50277 38099 ft 406 kts 302°
2026-05-06 10:33 22.13269 -71.55582 38104 ft 406 kts 303°
2026-05-06 10:33 22.16030 -71.60888 38099 ft 405 kts 303°
2026-05-06 10:34 22.18788 -71.66192 38101 ft 405 kts 303°
2026-05-06 10:34 22.21545 -71.71488 38102 ft 405 kts 303°
2026-05-06 10:35 22.24298 -71.76792 38100 ft 405 kts 303°
2026-05-06 10:35 22.27052 -71.82100 38098 ft 405 kts 303°
2026-05-06 10:36 22.29802 -71.87402 38103 ft 405 kts 303°
2026-05-06 10:36 22.32551 -71.92704 38091 ft 404 kts 303°
2026-05-06 10:37 22.35299 -71.98000 38101 ft 404 kts 303°
2026-05-06 10:37 22.38043 -72.03295 38103 ft 404 kts 303°
2026-05-06 10:38 22.40778 -72.08602 38129 ft 404 kts 303°
2026-05-06 10:38 22.43499 -72.13884 38090 ft 401 kts 303°
2026-05-06 10:39 22.46195 -72.19117 38091 ft 401 kts 303°
2026-05-06 10:39 22.48906 -72.24399 38096 ft 402 kts 303°
2026-05-06 10:40 22.51626 -72.29674 38095 ft 401 kts 303°
2026-05-06 10:40 22.54346 -72.34952 38100 ft 401 kts 303°
2026-05-06 10:41 22.57056 -72.40229 38102 ft 401 kts 303°
2026-05-06 10:41 22.59762 -72.45513 38101 ft 401 kts 303°
2026-05-06 10:42 22.62470 -72.50799 38101 ft 401 kts 303°
2026-05-06 10:42 22.65178 -72.56076 38100 ft 401 kts 303°
2026-05-06 10:43 22.67875 -72.61360 38093 ft 401 kts 303°
2026-05-06 10:44 22.71914 -72.69294 38098 ft 400 kts 303°
2026-05-06 10:44 22.74603 -72.74569 38100 ft 400 kts 303°
2026-05-06 10:45 22.77295 -72.79848 38103 ft 400 kts 303°
2026-05-06 10:45 22.79981 -72.85126 38104 ft 400 kts 303°
2026-05-06 10:46 22.82640 -72.90377 38120 ft 400 kts 303°
2026-05-06 10:46 22.85313 -72.95662 38087 ft 400 kts 304°
2026-05-06 10:47 22.87990 -73.00940 38098 ft 399 kts 304°
2026-05-06 10:47 22.90661 -73.06220 38098 ft 399 kts 303°
2026-05-06 10:48 22.92883 -73.10614 38099 ft 399 kts 304°
2026-05-06 10:48 22.95547 -73.15897 38102 ft 399 kts 303°
2026-05-06 10:49 22.98214 -73.21189 38101 ft 399 kts 303°
2026-05-06 10:49 23.00872 -73.26470 38102 ft 399 kts 303°
2026-05-06 10:50 23.03530 -73.31758 38089 ft 399 kts 304°
2026-05-06 10:50 23.06192 -73.37047 38099 ft 398 kts 304°
2026-05-06 10:51 23.08849 -73.42321 38105 ft 398 kts 304°
2026-05-06 10:51 23.11503 -73.47612 38104 ft 398 kts 304°
2026-05-06 10:52 23.14125 -73.52873 38103 ft 398 kts 304°
2026-05-06 10:52 23.16778 -73.58170 38103 ft 398 kts 304°
2026-05-06 10:53 23.19424 -73.63454 38099 ft 398 kts 304°
2026-05-06 10:53 23.22065 -73.68741 38104 ft 398 kts 304°
2026-05-06 10:54 23.24699 -73.74028 38110 ft 397 kts 304°
2026-05-06 10:54 23.27317 -73.79276 38108 ft 397 kts 304°
2026-05-06 10:55 23.29948 -73.84557 38106 ft 397 kts 304°